Location: Crouzit
(45.2333°N, 2.3000°E)
Time: 11:57:49
(UTC+00:00)

Daily predictions for brighter satellites

Satellite Brightness Start Highest point End
(mag) Time Altitude Azimuth Time Altitude Azimuth Time Altitude Azimuth
USA 229 DEB 4.0 16:28:27 10° NW 16:35:43 65° NE 16:43:27 10° SE
USA 229 4.0 16:28:32 10° NW 16:35:49 64° NE 16:43:32 10° SE
Cosmos 1500 Rocket 3.8 16:36:11 10° N 16:40:33 51° ENE 16:44:49 10° SSE
Spot 1 4.4 16:36:07 10° NNE 16:40:50 70° ESE 16:45:47 10° S
Nadezhda 4 Rocket 4.0 16:36:06 10° N 16:42:27 74° E 16:48:46 10° SSE
ATLAS 2AS CENTAUR R/B 4.5 16:36:40 10° WNW 16:42:32 22° NNW 16:48:12 10° NNE
SeaSat 1 4.3 16:39:14 10° N 16:43:11 25° NW 16:47:08 10° WSW
Cosmos 990 Rocket 3.9 16:39:16 10° NNW 16:44:29 73° ENE 16:49:38 10° SSE
FengYun 1-2 T 4.3 16:40:11 10° SSE 16:45:41 61° ENE 16:51:08 10° N
Cosmos 1697 Rocket 2.8 16:41:12 10° NNW 16:46:44 55° ENE 16:52:14 10° SE
NOAA 6 4.2 16:44:08 10° SE 16:49:06 51° ENE 16:54:04 10° N
Sich 1 3.8 16:46:24 10° NNE 16:50:12 30° ENE 16:54:00 10° SE
Cosmos 1980 Rocket 2.8 16:45:46 10° N 16:50:54 34° NE 16:55:58 10° ESE
Cosmos 2221 3.0 16:46:45 10° SSW 16:50:58 65° W 16:55:16 10° N
Cosmos 1805 Rocket 4.0 16:48:09 10° N 16:52:15 39° ENE 16:56:20 10° SE
Cosmos 2369 4.1 16:47:28 10° NNW 16:52:56 43° ENE 16:58:20 10° SE
USA 234 3.3 16:49:14 10° ESE 16:55:43 69° NNE 17:02:13 10° NW
Cosmos 1842 Rocket 4.0 16:51:25 10° SSW 16:55:50 68° W 17:00:19 10° N
CZ-4C R/B 3.4 16:50:27 10° NNW 16:56:59 40° NE 17:04:35 10° ESE
Cosmos 1092 Rocket 4.1 16:52:03 10° N 16:58:21 58° ENE 17:04:33 10° SSE
Cosmos 2084 3.6 16:54:33 10° NW 16:58:53 83° SW 17:03:22 10° SE
NOSS 3-1 (A) 4.2 16:51:49 10° NW 16:59:24 89° ENE 17:08:14 10° SE
Cosmos 1812 4.1 16:57:09 10° SE 16:59:55 19° E 17:02:41 10° NE
USA 306 4.3 16:56:50 10° WNW 17:00:22 25° N 17:03:35 11° NE
SL-16 R/B 3.8 16:58:32 10° N 17:01:47 15° NE 17:04:15 12° ENE
ISS -3.1 16:58:56 10° NW 17:02:10 39° NNE 17:04:59 13° E
Meteor 1-25 Rocket 4.2 16:58:27 10° N 17:04:01 72° ENE 17:09:37 10° SSE
SMAP 3.0 17:00:26 10° SSE 17:05:03 70° ENE 17:09:42 10° N
NOSS 2-2 (E) 4.5 17:00:03 10° NNW 17:05:14 59° NE 17:12:30 10° SE
Cosmos 2082 Rocket 2.8 17:00:14 10° S 17:05:25 37° ESE 17:10:36 10° NE
Meteor PRIRODA 4.3 17:02:12 10° S 17:05:47 59° W 17:09:22 10° NNW
Cosmos 1939 Rocket 2.8 17:02:10 10° SSE 17:06:17 79° ENE 17:10:23 10° N
CORIOLIS 4.1 17:02:40 10° SSE 17:08:00 68° ENE 17:13:25 10° N
CZ-4B DEB 4.2 17:08:56 10° SSE 17:14:24 67° ENE 17:19:51 10° N
Cosmos 2278 4.2 17:11:38 10° NNW 17:16:58 38° NE 17:22:14 10° ESE
Cosmos 1602 3.6 17:13:38 10° N 17:17:30 75° E 17:21:22 10° SSE
AQUARIUS 4.1 17:14:29 10° SSE 17:18:58 82° ENE 17:23:29 10° NNW
USA 307 4.3 17:15:41 10° WNW 17:19:15 25° N 17:21:38 16° NE
Cosmos 1627 Rocket 4.4 17:13:38 10° N 17:19:49 72° E 17:25:55 10° SSE
Cosmos 540 Rocket 3.4 17:15:17 10° SSW 17:20:22 75° ESE 17:25:29 10° NNE
Cosmos 2034 Rocket 4.5 17:15:38 10° SSW 17:21:43 62° WNW 17:27:50 10° N
ARGOS 3.6 17:19:45 10° SE 17:24:39 36° ENE 17:29:34 10° N
Cosmos 2279 Rocket 4.3 17:19:37 10° SSE 17:25:26 44° E 17:31:16 10° NNE
COSMOS 2406 3.2 17:20:16 10° SSW 17:26:02 88° ESE 17:31:48 10° NNE
COSMO-SKYMED 1 3.3 17:23:24 13° NE 17:26:43 33° E 17:30:38 10° SSE
Cosmos 1833 Rocket 2.9 17:21:46 10° SSW 17:27:22 72° WNW 17:33:01 10° NNE
Cosmos 1782 2.7 17:24:51 10° S 17:28:50 73° E 17:32:49 10° NNE
Cosmos 1814 Rocket 4.4 17:25:03 10° S 17:29:57 42° ESE 17:33:44 16° NE
Meteor 2-21 4.3 17:24:43 10° N 17:30:50 77° E 17:36:52 10° SSE
ATLAS 5 CENTAUR R/B 3.1 17:24:42 10° NW 17:31:40 28° NNE 17:33:09 22° NE
Cosmos 921 Rocket 4.5 17:30:27 10° SE 17:32:43 18° ESE 17:32:43 18° ESE
Cosmos 1633 Rocket 3.4 17:31:18 10° N 17:35:27 40° ENE 17:39:35 10° SSE
Cosmos 1818 4.2 17:31:07 10° NNW 17:36:07 34° NE 17:38:50 22° E
YAOGAN 1 4.5 17:39:35 14° NNE 17:39:35 14° NNE 17:40:26 10° NNE
Cosmos 1898 Rocket 4.4 17:34:29 10° NNW 17:39:34 52° WSW 17:44:36 10° S
CZ-2D R/B 3.1 17:35:56 10° SSE 17:39:46 87° E 17:43:37 10° NNW
GEOS 3 Rocket 4.4 17:37:59 23° ENE 17:40:05 31° NE 17:44:36 10° NNW
USA 308 4.3 17:38:23 10° NW 17:41:57 25° N 17:43:13 22° NNE
Cosmos 1634 Rocket 4.0 17:35:59 10° S 17:42:19 89° W 17:48:42 10° N
SJ-11-01 4.5 17:37:59 10° SE 17:42:32 48° ENE 17:47:06 10° N
COSMOS 2455 2.8 17:37:17 10° SSW 17:43:18 85° ESE 17:48:14 16° NNE
PAYLOAD B 4.2 17:38:36 10° SSE 17:44:12 90° NE 17:49:51 10° NNW
CZ-2C R/B 2.6 17:41:07 10° NNE 17:46:14 55° E 17:51:17 10° S
CZ-4B R/B 3.1 17:41:23 10° SSE 17:46:45 68° ENE 17:52:04 10° N
Cosmos 1500 3.3 17:43:16 10° NNW 17:47:01 74° W 17:50:43 10° S
Cosmos 1151 Rocket 3.0 17:43:35 10° S 17:47:50 62° E 17:51:27 14° NNE
Cosmos 2026 Rocket 4.2 17:42:29 10° NNW 17:48:37 73° W 17:54:38 10° S
Lacrosse 5 rocket 2.2 17:46:52 10° NW 17:50:22 30° NNE 17:50:36 30° NE
Okean O Rocket 1.7 17:46:29 10° SSE 17:50:50 55° ENE 17:55:13 10° N
Cosmos 2208 Rocket 4.2 17:53:52 10° S 17:59:06 54° ESE 18:01:39 29° NE
CZ-4 R/B 4.3 17:56:05 10° SSE 18:00:09 64° ENE 18:04:16 10° N
Cosmos 1666 Rocket 3.5 17:56:51 10° N 18:01:20 88° W 18:05:44 10° S
Meteor 1-10 Rocket 4.5 17:56:41 10° SSE 18:02:10 46° E 18:04:53 27° NE
H-2A R/B 2.3 17:57:47 10° S 18:02:56 68° WSW 18:07:59 10° NNW
Meteor 1-11 Rocket 4.1 17:58:09 10° N 18:03:23 39° ENE 18:05:46 27° ESE
Cosmos 1470 Rocket 3.7 18:00:13 10° N 18:04:33 48° ENE 18:08:53 10° SSE
Cosmos 2150 Rocket 4.3 17:59:42 10° N 18:04:34 39° ENE 18:04:48 39° ENE
USA 267 3.8 18:01:04 21° NE 18:05:12 49° NNW 18:11:26 10° W
Cosmos 1328 Rocket 3.4 18:00:57 10° S 18:05:21 69° E 18:07:30 30° NNE
Cosmos 1655 Rocket 4.1 18:00:25 10° N 18:06:42 54° ENE 18:12:53 10° SSE
USA 305 4.1 18:05:06 10° NW 18:08:46 28° N 18:08:46 28° N
Cosmos 2360 Rocket 3.8 18:04:37 10° N 18:07:10 18° NNE 18:07:10 18° NNE
Landsat 5 3.3 18:08:42 55° NE 18:09:19 64° ESE 18:13:15 10° S
Cosmos 2180 Rocket 4.4 18:07:45 10° S 18:14:05 79° E 18:20:24 10° N
Cosmos 841 Rocket 4.3 18:09:36 10° SW 18:14:36 50° WNW 18:18:54 14° N
SKYMED 2 3.6 18:12:00 21° N 18:14:54 78° WNW 18:19:14 10° SSW
Feng Yun 1-1 Rocket 4.3 18:10:21 10° SSE 18:16:11 65° ENE 18:22:00 10° N
Cosmos 1666 3.1 18:12:47 10° NNW 18:16:29 60° W 18:20:07 10° S
Meteor 2-8 Rocket 4.3 18:11:33 10° S 18:17:41 82° E 18:23:52 10° N
ATLAS CENTAUR R/B 3.3 18:11:08 10° WSW 18:19:06 42° NW 18:20:43 30° N
Cosmos 1125 Rocket 3.7 18:17:37 10° NNW 18:22:14 50° NE 18:22:14 50° NE
Cosmos 2322 Rocket 2.9 18:23:46 10° NNW 18:27:49 36° NNE 18:27:49 36° NNE
SL-08 RB Rocket 3.8 18:29:27 10° S 18:34:05 79° WSW 18:38:43 10° NNW
Cosmos 1980 Rocket 3.4 18:29:41 10° NW 18:35:00 42° WSW 18:40:14 10° S
Cosmos 1812 4.5 18:31:58 10° SW 18:35:26 31° WNW 18:37:47 17° NNW
ATLAS 2AS CENTAUR R/B 4.3 18:31:18 10° NW 18:36:26 19° N 18:37:27 19° NNE
USA 234 4.4 18:32:53 10° SSE 18:38:58 41° SW 18:45:05 10° WNW
ISS -2.0 18:35:46 10° WNW 18:37:58 33° W 18:37:58 33° W
CZ-4C R/B 3.3 18:38:45 10° NW 18:46:05 68° WSW 18:54:31 10° SSE
SL-16 R/B 2.3 18:41:16 10° NNW 18:46:11 62° NNE 18:46:11 62° NNE
Cosmos 2082 Rocket 3.5 18:44:14 10° WSW 18:49:29 37° NW 18:52:35 21° N
Cosmos 44 Rocket 3.7 18:49:01 10° NW 18:53:09 60° WNW 18:53:09 60° WNW
Cosmos 2333 Rocket 4.3 18:53:24 10° N 18:54:27 14° N 18:54:27 14° N
CZ-2C R/B 4.2 19:09:29 10° SSW 19:09:35 10° SSW 19:09:35 10° SSW
GEOS 3 Rocket 4.4 19:19:06 49° WNW 19:19:06 49° WNW 19:23:02 10° NW
Cosmos 1818 4.4 19:14:36 10° NW 19:19:32 47° WSW 19:19:32 47° WSW
Okean O Rocket 4.5 19:24:46 10° SW 19:27:31 16° W 19:30:17 10° NW
Lacrosse 5 rocket 4.2 19:25:43 10° WNW 19:26:13 13° WNW 19:26:13 13° WNW
BREEZE-M DEB (TANK) 4.3 19:24:25 10° SW 19:44:57 81° W 19:44:57 81° W
Cosmos 2360 Rocket 4.5 19:47:49 10° NNW 19:48:57 16° NNW 19:48:57 16° NNW
